Probability
0 0 0 0 1 2 3 3 1 0 1 2 2 2 1 0 0 0 0 0 0 0 0 0 0 0 0 0 0 0 0 0 0 0 0 0 0 0 0 0 0 0 0
0 0 0 0 1 2 3 3 2 1 0 1 1 1 0 0 0 0 0 0 0 0 0 0 0 0 0 0 0 0 0 0 0 0 0 0 0 0 0 0 0 0 0
0 0 0 0 1 2 3 3 2 1 0 0 0 0 0 0 0 0 0 0 0 0 0 0 0 0 0 0 0 0 0 0 0 0 0 0 0 0 0 0 0 0 0
0 0 0 0 1 2 3 3 3 1 0 0 0 0 0 0 0 0 0 0 0 0 0 0 0 0 0 0 0 0 0 0 0 0 0 0 0 1 1 1 0 0 0
0 0 0 0 1 2 3 3 3 2 1 0 0 0 0 0 0 0 0 0 0 0 0 0 0 0 0 0 0 0 0 0 0 0 0 0 0 1 2 2 2 2 1
0 0 0 0 1 2 3 3 3 3 1 0 0 0 0 0 0 0 0 0 0 0 0 0 0 0 0 0 0 0 0 0 0 0 0 0 0 1 2 3 3 2 2
1 1 1 0 1 2 3 3 4 4 2 1 0 0 0 0 0 0 0 0 0 0 0 0 0 0 0 0 0 0 0 0 0 0 0 0 0 1 2 3 3 2 2
3 3 2 1 0 1 1 2 3 3 2 1 0 0 0 0 0 0 0 0 0 0 0 0 0 0 0 0 0 0 0 0 0 0 0 0 0 1 3 3 2 1 1
4 4 3 2 1 0 0 1 1 1 1 1 0 0 0 0 0 0 0 0 0 0 0 0 0 0 0 0 0 0 0 0 0 0 0 0 1 2 3 3 1 0 0
3 3 3 2 1 0 0 0 0 0 0 0 0 0 0 0 0 0 0 0 0 0 0 0 0 0 0 0 0 0 0 0 0 0 0 0 1 2 3 2 1 0 0
1 2 2 1 0 0 0 0 0 0 0 0 0 0 0 0 0 0 0 0 0 0 0 0 0 0 0 0 0 0 0 0 0 0 0 0 1 2 3 2 1 0 0
1 1 1 1 1 0 0 0 0 0 0 0 0 0 0 0 0 0 0 0 0 0 0 0 1 0 0 0 0 0 0 0 0 0 0 0 1 2 1 1 0 0 0
1 1 1 2 2 1 0 0 0 0 0 0 0 0 0 0 0 0 0 0 0 0 0 0 0 0 0 0 0 0 0 0 0 0 0 0 1 1 1 0 0 0 0
0 1 2 3 3 1 0 0 0 0 0 0 0 0 0 0 0 0 0 0 0 0 0 0 0 0 0 0 0 0 0 0 0 0 0 0 0 0 0 0 0 0 0
0 0 1 2 2 2 1 0 0 0 0 0 0 0 0 0 0 0 0 0 0 0 0 0 0 0 0 0 0 0 0 0 0 0 0 0 0 0 0 0 0 0 0
0 0 0 1 2 3 2 1 0 0 0 0 0 0 0 0 0 0 0 0 0 0 0 0 0 0 0 0 0 0 0 0 0 0 0 0 0 0 0 0 0 0 0
0 0 0 0 2 3 2 1 0 1 1 1 0 0 0 0 0 0 0 0 0 0 0 0 0 0 0 0 0 0 0 0 0 0 0 0 0 0 0 0 0 0 0
0 0 0 0 1 2 2 1 0 1 1 1 0 0 0 0 0 0 0 0 0 0 0 0 0 0 0 0 0 0 0 0 0 0 0 0 0 0 0 0 0 0 0
0 0 0 0 1 1 1 0 0 0 0 0 0 0 0 0 0 0 0 0 0 0 0 0 0 0 0 0 0 0 0 0 0 0 0 0 0 0 0 0 0 0 0
0 0 0 0 0 0 0 0 0 0 0 0 0 0 0 0 0 0 0 0 0 0 0 0 0 0 0 0 0 0 0 0 0 0 0 0 0 0 0 0 0 0 0
0 0 0 0 0 0 0 0 0 0 0 0 0 0 0 0 0 0 0 0 0 0 0 0 0 0 0 0 0 0 0 0 0 0 0 0 0 0 0 0 0 0 0
0 0 0 0 0 0 0 0 0 0 0 0 0 0 0 0 0 0 0 0 0 0 0 0 0 0 0 0 0 0 0 0 0 0 0 0 0 0 0 0 0 0 0
0 0 0 0 0 0 0 0 0 0 0 0 0 0 0 0 0 0 0 0 0 0 0 0 0 0 0 0 0 0 0 0 0 0 0 0 0 0 0 0 0 0 0
0 0 0 0 0 0 0 0 0 0 0 0 0 0 0 0 0 0 0 0 0 0 0 0 0 0 0 0 0 0 0 0 0 0 0 0 0 0 0 0 0 0 0
0 0 0 0 0 0 0 0 0 0 0 0 0 0 0 0 0 0 0 0 0 0 0 0 0 0 0 0 0 0 0 0 0 0 0 0 0 0 0 0 0 0 0
0 0 0 0 0 0 0 0 0 0 0 0 0 0 0 0 0 0 0 0 0 0 0 0 0 0 0 0 0 0 0 0 0 0 0 0 0 0 0 0 0 0 0
Wind_Speed
2 3 4 5 8 9 10 10 10 9 10 10 10 10 10 10 10 9 9 9 9 9 10 10 10 10 11 11 11 11 11 11 11 11 11 11 11 11 11 11 9 6 11
4 4 4 6 8 10 10 9 9 9 9 9 9 9 9 9 9 9 9 8 8 9 9 9 10 10 11 11 11 11 11 11 11 11 11 10 10 11 11 10 9 7 11
5 4 4 6 8 9 10 9 9 9 8 8 9 9 9 9 8 8 8 8 8 9 9 10 10 10 10 10 10 11 10 11 10 10 9 5 6 10 11 10 10 11 11
6 5 5 6 8 9 9 9 8 8 8 8 8 8 8 8 8 8 8 8 8 9 9 10 10 10 10 10 10 10 10 11 10 9 5 4 4 9 11 11 10 10 11
5 4 4 6 9 9 8 9 8 8 8 7 7 7 7 8 8 7 8 8 8 8 9 9 9 9 9 9 9 9 10 10 10 8 5 5 4 9 11 11 11 11 11
5 4 5 7 9 9 8 8 8 8 7 7 7 7 7 7 7 7 8 8 8 8 8 9 9 9 9 9 9 9 9 10 8 5 4 4 3 9 10 11 11 10 10
5 4 5 7 9 9 8 8 7 7 7 7 6 6 7 6 6 7 7 8 8 8 8 8 8 8 8 8 8 8 9 8 5 4 4 3 4 9 10 10 9 9 9
7 5 5 7 7 8 8 8 7 6 6 7 6 6 6 6 6 7 7 7 7 7 7 8 8 8 7 7 7 8 8 7 5 4 3 3 6 7 8 8 8 8 8
6 5 4 4 5 6 6 7 7 6 6 6 6 6 6 6 6 6 6 6 6 7 7 7 7 7 7 7 7 7 7 7 4 2 2 2 5 6 7 7 7 7 7
5 5 4 4 3 4 4 5 6 6 6 6 6 6 6 5 5 5 5 6 6 6 6 6 6 6 6 6 6 6 6 5 3 2 1 2 5 6 6 6 6 6 5
4 4 4 4 4 3 4 5 5 5 6 5 5 6 5 3 3 3 4 5 5 5 5 6 6 6 5 5 6 5 4 2 2 1 1 2 4 5 5 4 4 4 4
6 5 4 5 4 4 3 3 2 3 3 3 2 3 2 2 2 2 3 4 4 4 4 4 5 5 4 2 3 4 2 2 2 1 1 2 3 4 4 3 3 3 3
6 5 5 5 4 4 3 3 2 2 2 2 3 3 2 2 2 2 1 2 2 2 1 2 2 2 2 1 1 1 1 1 1 1 1 1 2 2 3 2 2 2 3
5 6 5 5 5 4 3 3 3 2 2 2 2 3 3 2 1 1 1 1 1 1 1 1 1 2 2 2 2 2 1 1 0 0 1 1 1 2 1 1 1 1 2
6 6 6 6 6 5 4 3 3 3 3 2 2 2 3 3 2 2 1 1 1 1 1 1 1 2 2 1 2 2 1 1 0 0 1 1 1 0 1 1 1 1 2
6 6 7 7 6 5 4 4 4 3 3 3 3 3 3 3 3 2 2 1 1 1 1 2 2 2 2 1 1 1 1 0 0 0 0 1 2 1 1 1 1 1 1
6 6 6 7 6 6 5 4 3 3 3 3 3 3 3 4 3 3 2 2 2 1 2 2 2 2 1 1 1 1 1 0 0 1 1 1 1 2 1 2 2 1 1
6 6 5 5 6 6 5 4 3 3 3 3 2 3 4 4 4 3 3 2 2 2 2 2 2 2 1 1 0 0 0 0 0 0 1 1 1 1 2 2 3 2 3
7 6 6 5 5 5 5 4 3 3 3 3 2 2 3 4 4 4 3 3 3 2 2 2 2 2 2 1 0 0 1 0 1 1 1 1 1 1 1 2 3 3 3
6 6 6 5 5 5 3 3 2 2 2 2 2 2 3 3 4 4 3 3 3 2 2 2 2 1 2 2 1 1 1 1 1 1 1 1 1 1 1 1 1 2 3
5 6 6 6 5 5 4 3 3 2 2 2 2 3 3 3 4 4 3 3 4 3 4 3 2 2 1 1 2 1 2 1 1 1 1 1 2 2 1 1 1 1 2
6 7 7 6 6 6 4 3 2 2 2 2 1 2 3 3 3 4 4 4 4 3 4 4 3 2 1 2 2 1 1 2 2 2 1 2 2 2 2 2 1 1 1
6 7 7 7 6 5 4 3 2 2 1 1 1 2 2 3 3 3 4 4 4 4 4 5 5 5 3 2 2 3 3 3 2 2 2 2 2 2 2 2 2 2 1
7 6 5 6 6 6 5 5 6 4 4 4 3 2 2 2 3 3 3 4 4 4 4 5 5 3 4 3 2 1 2 2 2 2 3 2 2 3 3 2 2 2 2
5 5 4 5 5 6 6 6 6 4 3 2 2 3 3 3 3 3 3 3 3 4 4 5 4 4 4 4 3 2 1 1 1 2 3 3 3 3 3 3 2 2 2
3 3 4 4 5 5 6 6 6 6 5 4 4 4 3 2 3 3 3 3 3 3 4 5 5 6 5 4 4 3 3 3 3 3 3 3 3 3 3 3 3 3 2
Wind_Direction
182 193 190 162 139 127 120 114 110 107 107 109 110 107 104 101 97 94 93 92 91 90 89 88 85 81 78 75 74 73 73 71 69 69 71 74 77 79 77 73 71 70 78
168 177 173 149 139 131 122 116 112 109 110 112 113 112 109 106 103 100 97 96 96 96 95 91 87 85 82 80 77 74 72 69 67 66 67 69 75 78 80 79 79 81 80
145 159 156 139 134 130 125 120 118 114 113 114 115 115 112 109 107 103 101 99 99 98 97 94 90 88 85 82 80 75 73 70 67 68 64 53 69 82 83 83 84 83 83
143 148 147 138 133 131 128 125 123 121 118 114 116 117 117 114 110 108 106 102 100 100 99 96 93 92 87 83 79 75 75 72 69 68 57 52 64 86 86 85 85 85 84
134 140 140 136 136 130 129 128 125 123 121 117 116 119 120 120 117 114 110 104 102 102 102 100 98 95 91 86 80 77 77 73 65 59 53 52 60 87 87 85 83 84 82
134 136 140 137 138 132 128 127 127 127 126 123 119 121 121 122 121 117 114 108 105 103 102 102 100 98 94 89 82 80 81 72 63 52 50 50 61 89 89 86 83 81 82
136 138 145 139 139 135 132 130 129 129 129 125 121 124 124 121 121 121 118 112 109 105 106 107 103 99 94 90 86 83 79 71 67 59 51 48 71 88 88 85 82 80 79
139 138 140 139 138 136 134 134 133 130 128 124 121 120 126 127 124 125 121 118 116 111 111 111 108 103 97 92 88 82 75 68 70 62 46 48 77 86 87 85 83 81 79
138 135 133 134 136 135 134 132 132 129 124 121 119 113 117 120 118 116 121 120 120 117 114 113 111 106 100 95 88 80 76 67 62 55 53 53 84 90 89 88 87 86 85
135 140 138 131 128 133 138 133 128 123 118 113 111 106 104 110 109 106 110 116 116 117 120 118 114 108 102 96 88 79 74 66 57 48 38 73 93 98 93 89 88 87 90
145 149 143 141 136 137 140 133 127 123 119 114 111 107 101 92 93 93 100 113 119 120 123 125 120 110 98 93 86 77 70 63 55 40 18 80 104 106 102 97 94 94 90
176 173 160 156 152 146 144 133 134 133 126 118 116 116 108 100 94 94 93 106 112 114 113 120 119 105 95 82 74 70 68 66 54 24 17 70 107 109 111 107 101 103 103
183 177 175 171 161 152 151 145 144 135 126 123 123 124 113 99 96 90 91 84 93 96 88 98 102 101 98 100 91 78 82 71 53 354 348 37 117 113 115 112 111 112 114
184 183 180 175 165 162 157 158 155 148 149 146 143 139 130 123 121 124 124 127 117 115 127 123 131 116 107 107 108 100 85 73 56 325 319 341 123 133 139 145 134 145 150
188 190 186 176 172 168 160 166 159 163 163 160 155 154 147 145 150 149 148 141 130 122 134 145 143 131 120 108 102 105 89 63 51 8 320 348 340 172 202 186 182 182 182
194 194 187 181 178 171 170 173 171 171 168 163 166 170 162 156 159 161 157 152 148 149 150 140 133 137 135 121 101 96 102 77 50 34 330 325 326 331 287 231 227 227 224
192 188 186 184 178 173 172 172 168 172 169 173 175 177 172 163 165 163 164 168 171 166 151 132 126 109 112 114 106 86 91 79 50 30 5 351 327 323 310 271 269 261 272
178 180 187 184 178 176 173 169 168 176 176 174 175 179 180 173 168 164 167 181 178 170 162 151 144 125 116 107 79 352 328 1 8 355 0 347 330 314 302 296 292 283 275
180 177 181 179 177 177 174 167 165 172 178 173 172 174 182 179 177 173 177 185 171 167 170 164 148 142 151 154 152 333 306 294 284 307 315 311 309 306 288 296 305 305 291
178 176 180 179 176 163 157 146 142 155 171 170 176 183 184 187 183 181 182 184 170 165 171 163 153 144 161 163 125 359 310 294 296 269 265 283 290 284 285 291 294 308 314
175 178 185 180 175 164 160 164 172 187 184 184 187 187 189 188 187 188 190 186 179 179 183 174 154 152 145 123 88 1 330 321 292 271 270 270 278 274 279 270 254 267 297
187 190 190 187 181 179 176 169 163 155 186 190 188 192 196 193 196 199 197 195 190 184 181 178 162 161 163 160 137 122 333 320 298 265 263 252 265 273 267 266 248 238 242
192 200 198 192 186 184 169 146 122 108 97 168 207 216 218 207 203 201 201 199 197 191 193 192 183 174 179 197 176 158 163 222 279 292 266 256 264 261 263 272 257 244 237
201 200 200 194 187 185 173 168 167 179 193 207 203 207 218 213 209 205 201 202 205 200 197 197 193 187 172 188 205 219 197 168 174 275 297 282 267 253 253 259 260 252 233
192 191 197 192 190 189 184 182 185 194 200 192 183 191 207 219 220 214 208 206 212 211 207 201 197 194 190 187 186 181 187 212 182 188 254 280 288 263 251 249 254 254 243
178 182 184 187 193 190 189 189 195 197 191 186 197 202 210 219 222 224 218 218 220 216 215 213 207 203 203 198 196 189 181 184 194 192 221 242 259 267 258 250 247 249 245